Other Public Products
Issued by NWS Grand Forks, ND

Home | Current Version | Previous Version | Text Only | Print | Product List | Glossary On
Versions: 1 2 3 4 5 6 7 8 9 10 11 12 13 14 15 16 17 18 19 20 21 22 23 24 25 26 27 28 29 30 31 32 33 34 35 36 37 38 39 40 41 42 43 44 45 46 47 48 49 50
000
FPUS83 KFGF 300931
OPUFGF
PRAIRIE TO PINES WEATHER ROUNDUP
NATIONAL WEATHER SERVICE EASTERN NORTH DAKOTA/GRAND FORKS ND
400 AM CDT TUE MAY 30 2017

 **SATELLITE DATA USED TO AUGMENT SKY COVER AT AUTOMATED STATIONS**
 *****  WEATHER ACROSS EASTERN NORTH DAKOTA  *****

CITY           SKY/WX    TMP DP  RH WIND       PRES   REMARKS
GRAND FORKS    CLOUDY    48  44  86 NW16      29.91S
GRAND FORKS AF CLOUDY    47  43  88 N13       29.92S
GRAND CITY NWS NOT AVBL
BUXTON           N/A     47  46  95 NW9         N/A
DEVILS LAKE    LGT RAIN  46  42  86 NW13      29.97S
FARGO          CLOUDY    49  43  80 NW12      29.92S
WAHPETON ARPT  CLOUDY    46  43  87 NW5       29.94R
$$

 *****  WEATHER ACROSS CENTRAL AND WESTERN NORTH DAKOTA  *****

CITY           SKY/WX    TMP DP  RH WIND       PRES   REMARKS
JAMESTOWN      FAIR      44  39  82 NW12      29.97R
BISMARCK       FAIR      42  37  82 NW6       30.05R
MINOT          FAIR      44  39  82 NW12      30.04S
MINOT AFB      FAIR      40  37  91 NW9       30.03F
GARRISON         N/A     37  35  92 NW8       30.05R
WILLISTON      FAIR      40  30  67 N6        30.09R
DICKINSON      FAIR      38  28  67 NW7       30.05S
HETTINGER      FAIR      35  29  78 W8        30.08F
$$

 *****  OTHER OBSERVATIONS NORTHEAST NORTH DAKOTA  *****

CITY           SKY/WX    TMP DP  RH WIND       PRES   REMARKS
WALHALLA       NOT AVBL
LANGDON        CLOUDY    45  45 100 N17G24    29.94S
CAVALIER       LGT RAIN  45  45 100 NW14      29.92R
GRAFTON        CLOUDY    45  45 100 NW14      29.94R
CANDO          NOT AVBL
FORT TOTTEN      N/A     47  42  82 NW7       29.95S
ROLLA          CLOUDY    45  43  93 N17       29.98R
RUGBY          NOT AVBL
 ***** THE ABOVE OBSERVATIONS ARE NON NWS ARE NOT QUALITY
        CONTROLLED AND MAY MIS-REPORT RAIN FOR SNOW...
$$

 *****  OTHER OBSERVATIONS SOUTHEAST NORTH DAKOTA *****

CITY           SKY/WX    TMP DP  RH WIND       PRES   REMARKS
COOPERSTOWN    PTSUNNY   46  41  81 NW15      29.95S
VALLEY CITY    CLOUDY    48  43  81 NW9G18    29.96S
OAKES          NOT AVBL
GWINNER        CLOUDY    48  43  81 MISG      29.96R
SHEYENNE NWR     N/A     50  42  74 N7        29.95S
BUFFALO          N/A     49  39  70 CALM        N/A
WYNDMERE         N/A     50  45  81 NW5         N/A
 ***** THE ABOVE OBSERVATIONS ARE NON NWS ARE NOT QUALITY
       CONTROLLED AND MAY MIS-REPORT RAIN FOR SNOW...
$$

  *****  WEATHER ACROSS NORTHERN MINNESOTA  *****

CITY           SKY/WX    TMP DP  RH WIND       PRES   REMARKS
FLAG ISLAND    CLOUDY    45  43  93 NW18      29.80S FOG
WARROAD        CLOUDY    43  39  87 W8        29.84R FOG
ROSEAU         RAIN      43  37  81 NW10      29.85R
HALLOCK        CLOUDY    45  43  93 NW10      29.90R
THF RVR FALLS  NOT AVBL
HALSTAD          N/A     46  43  87 NW9         N/A
FOSSTON        DRIZZLE   41  39  93 NW10      29.88S
BAUDETTE       CLOUDY    43  43 100 W12       29.80S
WASKISH        DRIZZLE   43  41  93 W13G21    29.82S
CROOKSTON      CLOUDY    45  43  93 N15       29.91S FOG
$$
  *****  WEATHER ACROSS CENTRAL AND WEST MINNESOTA  *****

CITY           SKY/WX    TMP DP  RH WIND       PRES   REMARKS
BEMIDJI        CLOUDY    41  40  97 W9        29.84F
PARK RAPIDS    CLOUDY    45  39  79 NW17      29.85S
WADENA         CLOUDY    45  43  93 W8        29.87S
DETROIT LAKES  LGT RAIN  45  43  93 NW13      29.90S
MOORHEAD       CLOUDY    48  43  81 NW13      29.93S
FERGUS FALLS   CLOUDY    46  43  87 N15G21    29.91S
ELBOW LAKE     PTSUNNY   46  45  95 W10       29.92S
MORRIS MN      CLOUDY    52  46  82 NW12      29.91S
STAPLES        CLOUDY    45  39  81 NW9       29.87R
WHEATON        FAIR      50  45  81 N8        29.95R
$$
  *****  WEATHER ELSEWHERE ACROSS MINNESOTA  *****

CITY           SKY/WX    TMP DP  RH WIND       PRES   REMARKS
DULUTH         CLOUDY    46  43  89 W12       29.76S
INTRNTL FALLS  LGT RAIN  44  43  96 W8        29.76S FOG
ELY            CLOUDY    45  41  87 W8        29.73S
CLOQUET        CLOUDY    46  39  76 W8        29.78S
BRAINERD       CLOUDY    47  40  76 NW13      29.84S
HIBBING        CLOUDY    43  39  86 NW9G17    29.78R
ALEXANDRIA     CLOUDY    48  44  86 NW10G21   29.90S
SAINT CLOUD    CLOUDY    50  43  77 NW10      29.86S
MINNEAPOLIS    MOCLDY    54  44  69 W12       29.87R
$$

  *****  WEATHER ACROSS SOUTH DAKOTA  *****

CITY           SKY/WX    TMP DP  RH WIND       PRES   REMARKS
SIOUX FALLS    CLOUDY    53  46  77 W5        29.99S
BROOKINGS      FAIR      49  42  77 W6        29.98S
WATERTOWN      FAIR      48  41  76 W8        29.96S
HURON          FAIR      44  38  79 W6        30.00S
SISSETON         N/A     52  42  69 NW15      29.93S
ABERDEEN       CLOUDY    47  38  71 NW8       30.00R
MITCHELL       FAIR      49  40  71 W8        30.02S
PIERRE         FAIR      44  34  67 SW7       30.04S
MOBRIDGE       FAIR      43  34  70 N5        30.02R
RAPID CITY     FAIR      45  30  55 NW10      30.11S
$$

  *****  SOME WEATHER IN NEARBY STATES *****

CITY           SKY/WX    TMP DP  RH WIND       PRES   REMARKS
GLASGOW MT     FAIR      44  26  49 NE5       30.12R
GREAT FALLS MT CLOUDY    53  46  77 SW5       30.10S
CHEYENNE WY    FAIR      42  37  82 NW6       30.23F
SCOTTSBLUFF NE FAIR      42  36  79 NW3       30.16F
OMAHA NE       FAIR      52  45  77 S5        30.04S
DES MOINES IA  FAIR      55  45  68 CALM      30.01S
DAVENPORT IA   FAIR      54  46  74 W9        29.97R
CHICAGO IL     FAIR      56  46  69 W7        29.91R
EAU CLAIRE WI  FAIR      51  47  86 W8        29.82S
LA CROSSE WI   MOCLDY    55  48  77 W8        29.88R
$$

  *****  SOME NATIONAL WEATHER *****

CITY           SKY/WX    TMP DP  RH WIND       PRES   REMARKS
LA GUARDIA NY  CLOUDY    56  52  86 SE7       30.13S
RALEIGH NC     CLOUDY    69  67  93 CALM      30.02S
ATLANTA GA     CLOUDY    68  66  93 CALM      30.09R
NEW ORLEANS LA LGT RAIN  73  71  93 E6        30.06S
OKLAHOMA CITY  MOCLDY    60  53  77 S5        30.08S
ALBUQUERQUE NM FAIR      56  44  64 N10       30.21S
SALT LAKE CITY FAIR      64  43  46 S7        30.05R
LOS ANGELES CA CLOUDY    62  57  83 E5        29.90F
BOISE ID       FAIR      69  42  37 E8        29.95F
SEATTLE WA     CLOUDY    53  50  89 SW9       29.98S
$$

*** WEATHER ACROSS MANITOBA...SASKATCHEWAN AND ONTARIO ***
                ***ONTARIO***

CITY           SKY/WX    TMP DP  RH WIND       PRES   REMARKS
GERALDTON      DRIZZLE   52  52 100 W6        29.51S FOG
THUNDER BAY    LGT RAIN  50  48  93 W8        29.63S
SIOUX LOOKOUT  LGT RAIN  46  45  93 N9        29.67S FOG
TORONTO        MOCLDY    57  54  88 SW6       29.86S
BIG TROUT LK   CLOUDY    37  36  93 NW9       29.56F
PICKLE LAKE    NOT AVBL
DRYDEN         CLOUDY    45  45 100 NW8       29.71R
KENORA         LGT RAIN  43  43 100 NW8G17    29.77S
$$
                *** MANITOBA***

CITY           SKY/WX    TMP DP  RH WIND       PRES   REMARKS
BRANDON        CLOUDY    45  39  81 N9        30.00R
DAUPHIN        CLOUDY    46  43  87 NW8       30.01R
ISLAND LAKE    NOT AVBL
PILOT MOUND      N/A     43  41  93 N14G22      N/A
THE PAS        PTCLDY    43  37  81 NW5       30.05S
THOMPSON       PTCLDY    39  36  87 NW7       29.94S
WINNIPEG       CLOUDY    45  41  87 NW15      29.90R
LYNN LAKE      CLEAR     39  34  81 W7        30.02S
CHURCHILL      MOCLDY    34  34 100 N14       29.88S WCI  24
GILLAM         MOCLDY    39  37  93 N16       29.81R
$$
                ***SASKATCHEWAN***

CITY           SKY/WX    TMP DP  RH WIND       PRES   REMARKS
ESTEVAN        PTCLDY    37  34  87 NW8       30.09S
KINDERSLEY     CLEAR     46  28  49 E13       30.14S
LLOYDMINSTER   CLEAR     45  32  61 SE8       30.16R
PRINCE ALBERT  CLEAR     34  30  86 CALM      30.17S
REGINA         NOT AVBL
YORKTON        PTCLDY    45  39  81 NW10      30.07S



USA.gov is the U.S. government's official web portal to all federal, state and local government web resources and services.